Temp_Advection
nan nan nan nan nan nan nan nan nan nan nan nan nan nan nan nan nan nan nan nan nan nan nan nan nan nan nan nan nan nan nan nan nan nan nan nan nan nan nan nan nan nan nan nan nan
nan -0 -0 -0 0 0 0 -0 0 0 -0 -0 -0 -0 -0 -0 -0 -0 0 0 0 -0 0 0 0 0 0 0 0 -0 0 -0 0 -0 0 0 0 -0 -0 -0 -0 0 0 0 nan
nan -0 -0 -0 -0 -0 0 0 -0 0 0 0 -0 -0 0 -0 -0 0 0 0 0 -0 0 0 0 0 0 0 0 -0 -0 -0 -0 -0 0 0 -0 0 0 -0 -0 0 0 0 nan
nan -0 -0 -0 -0 -0 -0 -0 0 0 -0 0 0 -0 -0 -0 -0 0 0 0 -0 -0 -0 0 0 -0 -0 0 0 -0 -0 -0 0 0 0 0 0 0 -0 -0 0 -0 -0 -0 nan
nan -0 -0 -0 -0 -0 0 -0 -0 0 0 0 0 0 -0 -0 -0 -0 -0 0 -0 -0 -0 -0 -0 -0 -0 0 0 0 0 0 0 -0 0 0 0 -0 -1 -1 0 -0 -0 -0 nan
nan -0 -0 -0 -0 -0 -0 0 0 -0 0 0 0 0 0 -0 -0 -0 -0 -0 -0 -0 -0 -0 -0 0 -0 0 0 0 0 0 0 -0 0 -0 -0 -0 -0 -0 0 0 -0 -0 nan
nan -0 0 0 -0 -0 -0 -0 0 0 0 0 0 0 -0 -0 0 -0 0 0 0 0 0 0 0 0 -0 -0 0 0 0 -0 -0 -0 0 0 0 -0 -1 0 0 -0 -0 -0 nan
nan -1 -0 0 -0 -0 -0 -0 -0 -0 0 0 0 0 -0 0 0 -0 0 0 0 0 0 0 0 0 -0 -0 -0 -0 0 -0 -0 -0 -0 0 -0 0 0 0 0 -0 -0 -0 nan
nan -0 -1 -1 -0 -0 -0 -0 -0 -0 0 0 0 0 0 0 0 0 0 0 0 0 0 0 0 -0 0 0 0 0 -0 0 0 -0 -0 0 -0 -0 -0 -0 -1 -1 0 0 nan
nan -0 -1 -1 -0 -1 -0 -0 0 0 -0 0 0 0 0 -0 0 0 0 0 0 0 0 0 -0 -0 0 0 -0 0 0 0 0 0 -0 -0 -0 -1 -1 -0 -1 -0 -0 0 nan
nan -0 -0 -1 -0 -1 -1 -0 -0 0 -0 -0 0 0 0 0 0 0 0 0 0 0 0 -0 0 -0 0 0 -0 0 0 0 0 0 0 0 -0 -1 -0 0 -1 -1 0 -0 nan
nan -0 -0 -1 -1 -0 -1 -0 -0 -0 -1 -0 0 0 0 0 0 0 0 0 0 0 0 0 0 0 0 0 0 0 0 0 0 0 0 -0 -0 0 0 -0 -1 -0 -0 0 nan
nan -0 -1 -1 -1 -0 -0 -1 -0 -0 -0 -0 0 0 0 0 0 0 0 0 -0 0 0 0 -0 -0 0 0 -0 -0 0 0 0 0 -0 -0 -0 0 0 -0 -0 0 0 0 nan
nan -2 -1 -1 -0 -0 -0 -0 -0 -0 0 -0 0 0 0 0 0 0 0 0 -0 0 0 -0 0 -0 0 -0 0 -0 -0 -0 -0 -0 0 0 -0 0 -0 -0 -0 0 0 0 nan
nan -2 -1 -1 -0 -0 -0 -0 -0 -0 0 -0 -0 0 0 0 0 0 0 -0 -0 0 0 0 -0 0 0 0 0 0 -0 -0 -0 -0 -0 -0 0 -0 0 -0 0 -0 -0 -0 nan
nan -1 -1 -1 -0 -0 -0 -0 -0 0 0 -0 0 0 0 0 0 0 0 0 -0 -0 -0 -0 0 0 -0 -0 -0 0 0 -0 -0 -0 0 -0 0 -0 -0 0 0 -0 -0 0 nan
nan -1 -1 -0 -0 -0 -0 0 -0 0 -0 -0 0 0 0 0 0 -0 0 0 0 0 0 -0 -0 0 0 -0 0 -0 -0 -0 0 0 -0 -0 -0 -1 0 0 0 0 -0 0 nan
nan -1 -1 -0 -0 -0 0 0 0 1 -0 -0 0 0 0 0 -0 -0 0 0 0 0 -0 0 0 0 0 0 0 0 -0 0 0 0 0 0 -1 -0 0 0 -0 -0 0 0 nan
nan -1 -1 -0 -0 -0 0 -0 0 -0 -0 -0 -0 -0 -0 -0 0 -0 0 -0 -0 0 -0 -0 0 -0 -0 0 -0 0 0 -0 -1 0 0 -0 -0 -0 0 0 -0 0 0 -0 nan
nan -1 -1 -0 -0 0 -0 -0 -0 -0 -0 0 0 0 0 0 0 0 0 -0 0 0 0 0 -0 -0 -0 -0 -0 0 0 -0 0 -0 0 0 -1 -1 -0 0 0 0 -1 -1 nan
nan -1 -0 0 0 0 -1 0 -0 0 -0 -0 0 -0 -0 -0 0 0 -0 -0 -0 -0 0 0 -0 -0 -0 0 -0 -0 -0 -0 0 0 0 -0 -0 0 0 1 1 -0 -2 -1 nan
nan -0 -0 0 0 -0 -0 0 0 0 0 0 -0 -0 -0 -0 -0 -0 -0 0 0 -0 0 0 -0 0 -0 -0 -0 -0 -0 -0 0 1 0 0 -1 0 1 0 -0 -1 -1 -0 nan
nan -0 -1 0 -0 0 -0 -0 0 -0 0 0 0 0 0 0 0 0 0 -0 0 0 0 0 0 0 0 0 0 -0 0 -1 -0 0 -0 0 -0 0 0 -0 -0 -1 -1 0 nan
nan -0 -0 -0 -0 -0 -0 -0 0 -0 -0 0 0 -0 0 0 0 0 0 -0 -0 -0 -0 -0 -0 0 0 -0 -0 -0 0 -0 -1 -0 -0 -1 -1 -1 1 1 -0 -1 -0 0 nan
nan -0 -0 -0 0 -0 -0 -0 -0 0 0 0 0 -0 -0 -0 -0 0 -0 -0 -0 0 0 0 0 0 -0 0 0 0 -0 -0 -0 -0 -0 1 0 -0 1 -0 -1 -1 0 -0 nan
nan -0 -0 -0 -0 -0 -1 -1 -0 0 0 -0 -0 0 0 0 -0 0 -0 -0 0 0 0 -0 -0 -0 0 0 0 -0 -0 -0 0 0 -1 -1 -2 -2 1 1 0 -1 -0 1 nan
nan nan nan nan nan nan nan nan nan nan nan nan nan nan nan nan nan nan nan nan nan nan nan nan nan nan nan nan nan nan nan nan nan nan nan nan nan nan nan nan nan nan nan nan nan
Wind_Speed
17 15 15 15 15 13 12 11 12 12 10 9 9 8 6 5 2 6 3 3 3 3 4 8 13 15 14 7 5 5 3 2 4 5 2 2 2 1 3 4 3 3 4 5 6
17 18 17 16 15 14 13 11 13 12 9 8 7 7 6 5 2 2 4 3 1 3 4 8 15 16 8 6 4 4 3 7 2 3 3 1 0 2 2 4 3 5 6 7 7
19 19 19 17 17 17 14 13 12 12 9 7 7 6 5 3 3 1 4 3 1 4 6 8 15 10 5 6 4 4 5 4 3 4 3 2 3 3 3 5 9 3 4 7 10
19 19 20 20 19 18 17 14 13 13 10 6 6 6 5 3 2 2 3 2 1 8 10 13 10 7 5 5 5 4 3 4 3 3 2 2 2 4 9 6 3 6 11 6 3
20 20 21 21 20 20 19 17 15 13 11 5 5 5 3 2 3 4 2 1 4 11 11 9 11 6 6 6 6 4 3 3 2 4 6 7 8 7 14 16 15 13 5 4 6
20 20 21 22 22 21 21 19 16 13 11 6 5 4 3 2 2 3 1 2 5 11 12 10 7 6 7 4 4 5 3 1 2 1 2 3 4 1 2 5 6 10 7 11 17
18 20 21 21 23 23 24 21 17 14 11 8 5 4 6 4 2 3 2 4 5 9 10 10 8 5 9 5 5 4 3 1 3 3 1 4 5 7 13 6 5 4 14 20 18
18 20 21 22 23 25 26 22 19 13 9 7 5 4 3 5 4 2 4 5 6 7 9 9 8 8 3 9 4 3 4 1 0 5 0 2 7 2 9 8 7 14 14 10 5
19 21 21 20 23 25 27 23 16 9 6 6 5 4 2 3 4 2 4 6 8 8 8 10 5 4 5 5 3 4 2 3 3 3 3 2 6 4 9 7 21 23 11 5 7
16 19 22 21 22 25 25 22 10 6 4 3 5 3 5 4 4 3 5 9 5 9 6 3 2 3 3 3 4 5 3 3 4 2 2 5 14 12 23 16 26 18 8 9 11
16 16 21 22 20 23 23 19 6 3 3 5 3 3 4 5 5 5 6 9 8 3 3 1 3 5 5 2 3 6 3 2 2 1 4 4 9 19 17 14 20 16 12 14 14
19 22 25 23 20 19 18 11 9 8 8 10 13 11 7 5 4 6 8 7 5 4 2 3 4 4 7 4 5 3 2 3 3 0 1 5 20 10 4 5 8 12 13 14 11
28 26 25 21 16 15 15 13 13 15 2 5 8 6 5 8 4 8 9 7 3 5 5 5 1 6 3 3 3 2 2 1 2 5 1 6 7 5 2 1 3 7 10 11 9
20 25 21 17 13 6 10 13 12 12 4 4 3 3 5 5 2 5 9 4 3 6 6 2 4 4 2 2 3 2 3 3 3 3 2 4 4 5 3 5 3 8 13 13 8
17 17 14 11 11 9 9 12 6 4 3 1 2 2 4 3 8 2 5 3 6 5 4 3 7 4 3 1 3 3 3 3 1 2 2 3 3 7 3 5 8 11 18 16 12
18 19 13 11 11 12 9 5 1 2 7 1 2 2 3 0 1 6 4 4 5 4 4 2 0 1 2 4 3 6 4 4 3 0 3 1 3 6 4 5 3 4 21 18 13
18 20 15 12 10 8 9 4 2 5 4 4 2 2 1 3 2 3 3 4 5 5 4 1 2 1 2 5 2 2 4 3 5 4 4 2 1 10 5 5 4 5 16 19 11
24 17 12 11 14 12 12 1 7 4 6 1 1 2 1 2 1 3 2 3 5 3 3 6 4 6 3 1 4 3 5 5 6 2 4 2 6 5 5 1 6 10 10 14 7
27 21 15 10 12 14 9 4 7 7 5 6 0 5 2 3 3 2 6 4 7 11 8 5 1 1 4 1 1 4 2 4 7 1 3 2 7 10 4 8 10 10 13 14 8
26 25 18 11 15 17 4 16 7 5 7 4 6 2 5 6 2 3 6 3 3 5 2 5 4 1 3 1 6 2 5 3 2 1 4 4 6 5 4 4 4 8 20 19 12
21 11 5 10 14 12 11 9 5 8 9 7 8 5 5 6 5 4 3 2 1 3 1 4 3 0 2 7 8 2 0 4 3 3 5 1 6 7 8 7 7 8 17 21 18
7 3 6 12 7 5 11 6 5 5 4 2 4 4 8 8 5 3 6 4 1 5 6 4 4 4 4 1 0 1 4 5 4 5 1 2 7 3 7 6 7 14 14 18 20
5 8 19 16 6 11 2 4 4 4 5 6 8 5 2 6 3 7 4 2 2 2 5 4 2 3 2 1 3 4 5 4 4 3 6 5 6 1 4 5 12 14 14 18 21
6 2 5 20 16 4 14 16 5 6 3 4 4 5 3 4 2 5 6 2 2 1 0 2 2 5 5 3 4 5 6 6 5 3 4 8 7 14 8 9 9 18 23 24 17
6 5 8 3 7 10 5 4 18 12 4 8 4 7 7 5 4 4 3 2 0 2 2 2 4 1 3 3 2 3 5 12 9 7 8 11 11 16 7 7 12 19 22 19 16
12 5 5 5 11 10 13 22 16 12 12 5 7 9 10 7 9 9 8 5 5 2 5 1 1 1 3 1 3 4 7 12 16 3 12 13 21 20 27 20 19 21 14 19 17
21 17 12 14 4 3 4 5 10 12 12 24 16 8 12 8 5 7 8 8 6 8 7 5 5 3 5 2 1 7 12 17 8 6 10 9 18 1 5 5 12 16 17 20 16
Wind_Direction
358 356 358 358 357 353 343 344 343 340 337 326 322 326 328 197 295 29 283 298 252 232 225 200 184 176 170 155 137 127 76 193 234 168 241 2 66 40 311 268 245 213 207 198 215
359 356 355 355 354 350 343 342 341 341 341 330 323 327 340 226 287 327 337 330 257 185 183 177 169 162 154 144 146 107 142 214 203 195 209 229 188 309 293 314 257 255 234 225 257
359 358 355 353 352 350 346 336 342 335 335 329 318 316 340 311 286 231 333 312 250 168 160 164 158 152 119 145 156 156 191 202 218 204 193 228 273 228 202 261 235 194 277 259 280
1 0 356 354 354 351 344 338 334 330 325 318 304 323 313 329 216 294 318 302 166 158 149 151 157 135 122 159 161 145 200 187 186 194 220 232 270 269 226 236 234 300 293 267 227
0 1 1 355 352 349 345 339 330 324 317 307 292 304 313 255 245 319 296 248 158 165 165 170 171 146 150 153 135 156 186 201 224 260 270 273 257 250 263 270 255 283 244 224 274
352 358 358 357 352 349 342 337 328 315 310 300 287 282 271 250 244 348 202 180 174 176 185 187 201 186 124 146 156 165 149 238 247 8 289 308 274 331 247 329 211 204 239 265 283
336 343 347 352 352 349 343 335 326 310 298 281 289 262 254 250 217 13 167 158 163 189 192 199 182 171 142 117 141 123 130 154 36 323 259 331 278 234 251 184 163 256 284 283 281
327 328 331 335 342 347 344 335 326 318 282 254 279 250 252 209 225 345 162 150 136 147 174 173 163 134 106 128 57 87 67 156 72 356 290 76 271 282 180 190 219 319 308 283 252
311 321 325 329 333 338 341 336 326 317 288 244 251 229 236 204 210 215 165 157 150 145 135 142 154 107 115 106 46 14 210 212 305 44 321 141 274 279 203 256 283 300 298 241 172
313 316 317 322 333 334 336 338 317 301 282 246 221 253 220 192 188 170 158 157 141 151 136 160 111 82 48 94 210 189 198 223 244 331 341 257 262 265 270 273 284 287 260 191 165
299 309 321 321 327 338 342 348 331 274 297 233 244 240 168 190 190 169 165 153 142 167 167 90 108 205 189 176 92 105 108 253 262 320 300 255 279 278 279 255 262 262 197 182 168
282 292 312 313 315 335 348 11 356 322 305 255 239 238 225 199 178 183 173 160 164 184 148 42 214 150 119 108 103 90 113 247 276 211 303 337 291 283 277 247 228 202 180 173 168
279 288 296 304 312 321 345 360 351 349 299 270 222 210 199 198 203 170 179 164 127 146 188 165 127 148 122 133 125 116 173 234 269 319 66 297 291 347 29 190 177 182 176 169 179
317 290 287 292 304 306 329 339 345 1 31 247 222 194 173 169 189 167 171 152 68 172 146 128 146 153 137 168 145 183 117 94 335 17 270 358 275 306 336 299 241 196 188 187 199
324 323 273 283 287 289 305 320 325 14 304 353 153 152 165 184 142 121 150 135 149 146 133 212 161 156 167 200 179 139 110 96 58 80 8 34 72 272 350 263 232 220 209 204 218
313 319 298 263 262 279 291 276 23 69 245 311 106 164 121 214 226 135 112 106 105 106 48 95 96 115 107 73 64 139 85 58 51 33 25 245 128 275 205 213 296 221 213 209 222
317 312 316 243 250 264 248 195 43 224 337 284 142 146 181 169 205 77 152 156 158 132 193 120 177 139 152 103 60 101 74 339 343 6 214 29 234 248 249 230 222 269 219 205 231
328 307 294 250 240 240 206 101 218 217 232 255 58 55 237 143 62 115 125 239 222 127 119 153 281 171 178 210 168 158 153 157 216 238 278 13 238 249 211 225 268 243 218 200 256
330 313 293 257 226 233 185 208 212 195 164 160 188 97 321 319 52 145 198 235 209 177 174 148 159 76 30 84 70 187 166 143 103 65 38 255 281 284 245 253 239 223 214 222 274
328 324 294 236 220 218 207 228 213 174 136 126 188 105 179 169 165 225 182 208 213 195 100 198 92 359 179 121 42 133 140 82 4 158 270 286 281 242 267 236 216 224 225 226 257
322 317 294 200 217 201 220 224 207 200 166 163 196 152 233 174 147 189 253 297 90 121 66 148 108 131 141 207 175 127 79 54 113 133 177 246 261 212 211 196 226 246 246 240 247
303 274 315 203 204 210 231 190 196 184 165 180 147 165 191 175 158 219 231 213 149 166 169 195 127 159 208 90 317 191 174 158 131 221 146 143 270 219 221 234 232 262 269 248 258
241 254 265 223 228 226 251 267 227 172 182 188 197 191 159 163 203 193 207 17 157 204 160 206 235 80 7 27 358 220 188 125 114 98 200 146 258 207 265 258 242 248 265 266 282
259 269 250 222 246 249 234 240 234 211 203 190 153 101 147 167 203 197 218 64 346 203 333 130 169 172 193 156 123 190 179 168 137 132 180 228 285 269 246 252 257 259 276 286 286
278 240 209 275 238 261 260 268 227 230 234 167 198 196 188 161 166 218 156 137 287 192 105 174 218 175 254 225 187 204 173 177 200 194 189 263 209 254 261 240 264 293 299 289 285
253 267 297 255 264 289 274 240 247 232 190 223 236 182 206 177 188 189 160 183 184 160 187 330 319 106 277 217 200 259 225 197 215 235 259 271 286 266 275 281 273 281 294 290 285
262 242 271 269 205 229 236 351 280 267 233 225 200 179 213 218 161 103 134 143 149 152 155 156 155 131 261 44 299 291 229 199 195 208 195 203 237 324 268 242 262 286 290 289 286
Height
1510 1507 1504 1501 1499 1496 1495 1492 1490 1488 1486 1485 1485 1485 1483 1482 1482 1480 1482 1481 1480 1480 1480 1482 1485 1487 1490 1494 1495 1497 1506 1510 1504 1505 1499 1499 1498 1499 1500 1500 1501 1501 1502 1503 1503
1510 1507 1504 1501 1498 1496 1493 1490 1489 1486 1484 1484 1484 1484 1483 1482 1481 1480 1481 1479 1479 1479 1480 1482 1484 1486 1490 1492 1495 1497 1507 1502 1500 1499 1498 1499 1499 1499 1499 1499 1498 1498 1499 1500 1500
1510 1506 1504 1501 1498 1495 1492 1489 1487 1486 1483 1483 1483 1483 1482 1480 1480 1479 1479 1478 1478 1478 1480 1482 1485 1486 1488 1491 1494 1497 1502 1498 1498 1498 1498 1498 1497 1497 1497 1496 1493 1496 1498 1498 1498
1509 1506 1504 1501 1498 1495 1492 1489 1486 1485 1483 1482 1482 1482 1481 1480 1482 1478 1477 1477 1476 1478 1480 1483 1485 1485 1488 1492 1493 1496 1496 1496 1496 1497 1497 1497 1496 1495 1494 1493 1493 1494 1494 1495 1496
1510 1506 1503 1500 1498 1494 1491 1488 1486 1484 1482 1480 1480 1481 1480 1480 1479 1477 1476 1476 1476 1478 1480 1482 1484 1484 1488 1489 1492 1494 1494 1496 1496 1495 1495 1495 1494 1494 1489 1490 1491 1492 1492 1493 1493
1509 1506 1503 1500 1497 1493 1490 1487 1484 1482 1480 1479 1479 1479 1480 1480 1477 1476 1476 1476 1476 1478 1480 1482 1483 1484 1486 1489 1491 1491 1493 1495 1495 1495 1495 1495 1493 1493 1486 1485 1485 1489 1491 1490 1489
1508 1505 1503 1500 1496 1493 1489 1485 1482 1480 1478 1478 1477 1477 1477 1478 1476 1476 1475 1475 1476 1477 1480 1482 1483 1484 1485 1489 1491 1491 1495 1495 1495 1495 1494 1494 1490 1489 1484 1485 1486 1488 1488 1487 1486
1506 1504 1502 1499 1495 1491 1488 1483 1479 1476 1476 1476 1476 1476 1475 1474 1474 1475 1475 1476 1476 1477 1479 1481 1482 1483 1485 1489 1491 1493 1496 1495 1495 1495 1494 1494 1488 1483 1482 1483 1483 1484 1484 1483 1482
1505 1503 1500 1497 1494 1490 1487 1482 1477 1475 1475 1474 1475 1475 1474 1473 1474 1474 1475 1476 1477 1478 1480 1481 1483 1485 1488 1491 1494 1496 1493 1495 1493 1497 1496 1494 1487 1481 1481 1482 1480 1480 1480 1480 1481
1502 1500 1498 1495 1492 1488 1485 1480 1476 1474 1474 1473 1473 1477 1473 1472 1472 1473 1474 1475 1477 1479 1481 1482 1482 1487 1491 1492 1493 1489 1491 1494 1496 1497 1496 1494 1486 1480 1480 1479 1475 1476 1477 1478 1479
1499 1497 1496 1493 1490 1487 1484 1479 1479 1476 1472 1471 1471 1469 1470 1471 1471 1472 1473 1474 1477 1479 1481 1481 1485 1486 1484 1487 1489 1492 1492 1494 1496 1497 1498 1491 1488 1473 1471 1470 1469 1470 1473 1475 1475
1495 1494 1492 1491 1489 1487 1485 1482 1482 1481 1472 1467 1467 1467 1467 1468 1470 1470 1472 1473 1475 1480 1480 1484 1482 1485 1487 1489 1490 1492 1494 1495 1497 1497 1497 1493 1477 1467 1464 1464 1463 1465 1468 1470 1471
1490 1490 1490 1489 1487 1486 1485 1483 1481 1477 1474 1464 1463 1463 1464 1467 1466 1467 1470 1470 1473 1479 1480 1482 1484 1486 1486 1489 1488 1494 1493 1497 1498 1497 1498 1496 1472 1465 1463 1463 1463 1465 1466 1468 1470
1486 1485 1485 1486 1488 1484 1484 1483 1481 1478 1484 1463 1462 1460 1462 1464 1466 1466 1466 1469 1473 1478 1482 1482 1485 1486 1486 1486 1488 1484 1496 1500 1501 1498 1499 1497 1495 1467 1466 1465 1463 1463 1463 1465 1467
1482 1481 1481 1483 1483 1483 1484 1482 1480 1479 1482 1463 1462 1462 1462 1465 1465 1466 1465 1468 1472 1477 1482 1479 1486 1485 1485 1484 1488 1491 1496 1499 1503 1508 1507 1501 1511 1469 1468 1461 1459 1458 1459 1462 1464
1479 1478 1477 1479 1480 1481 1482 1481 1481 1485 1475 1462 1462 1462 1463 1464 1464 1464 1464 1468 1471 1476 1480 1484 1484 1484 1485 1489 1491 1495 1498 1503 1508 1509 1521 1504 1504 1471 1464 1455 1452 1453 1455 1458 1461
1476 1474 1474 1475 1478 1479 1481 1481 1484 1474 1463 1466 1461 1460 1462 1464 1465 1458 1467 1469 1473 1480 1480 1483 1484 1485 1485 1490 1494 1494 1501 1523 1516 1524 1507 1507 1505 1462 1452 1453 1452 1452 1452 1455 1458
1473 1471 1470 1470 1473 1476 1478 1479 1476 1474 1474 1463 1462 1460 1463 1462 1463 1465 1468 1468 1469 1469 1480 1485 1487 1485 1484 1484 1485 1492 1499 1515 1511 1507 1508 1507 1497 1451 1448 1448 1448 1450 1451 1453 1454
1470 1467 1467 1468 1469 1473 1475 1472 1467 1464 1456 1462 1462 1464 1469 1468 1465 1464 1468 1466 1459 1461 1468 1478 1476 1486 1486 1485 1487 1496 1503 1502 1536 1556 1526 1496 1475 1449 1445 1447 1447 1448 1450 1449 1450
1468 1462 1460 1463 1466 1468 1469 1455 1455 1447 1451 1456 1460 1465 1462 1467 1468 1467 1462 1455 1455 1457 1458 1461 1484 1486 1488 1487 1489 1488 1494 1501 1515 1503 1506 1493 1490 1453 1439 1438 1444 1446 1444 1443 1444
1467 1464 1458 1458 1462 1462 1453 1447 1446 1445 1446 1452 1459 1465 1464 1465 1461 1470 1462 1457 1456 1459 1460 1461 1466 1489 1487 1484 1481 1494 1498 1502 1503 1507 1508 1511 1465 1443 1438 1436 1441 1439 1438 1438 1438
1466 1465 1458 1457 1459 1452 1445 1445 1443 1443 1444 1446 1447 1449 1455 1456 1460 1466 1458 1456 1457 1457 1461 1460 1469 1488 1476 1479 1478 1477 1479 1485 1493 1500 1516 1517 1472 1434 1435 1434 1435 1434 1434 1434 1434
1461 1458 1457 1455 1448 1444 1444 1441 1440 1444 1442 1443 1445 1445 1450 1450 1454 1459 1455 1456 1457 1458 1458 1460 1470 1489 1476 1482 1480 1477 1476 1481 1498 1504 1503 1499 1455 1432 1433 1432 1431 1431 1431 1430 1430
1460 1456 1450 1449 1444 1442 1441 1439 1439 1437 1438 1439 1441 1445 1449 1449 1452 1455 1456 1454 1455 1457 1457 1459 1464 1461 1449 1446 1460 1470 1469 1475 1483 1498 1493 1472 1456 1424 1430 1431 1426 1426 1425 1424 1422
1457 1449 1445 1444 1443 1442 1441 1432 1432 1435 1438 1437 1440 1437 1440 1444 1449 1451 1454 1456 1456 1456 1458 1460 1462 1468 1463 1460 1460 1456 1462 1469 1471 1469 1459 1428 1454 1423 1421 1424 1419 1417 1417 1417 1416
1452 1452 1446 1439 1439 1439 1436 1426 1430 1429 1433 1436 1432 1433 1436 1435 1433 1440 1445 1450 1447 1456 1456 1458 1460 1464 1462 1463 1464 1463 1457 1461 1458 1461 1460 1448 1438 1413 1413 1415 1414 1413 1413 1411 1412
1447 1444 1446 1439 1437 1438 1436 1430 1430 1432 1423 1421 1426 1432 1432 1430 1432 1433 1436 1440 1441 1444 1454 1459 1463 1466 1461 1462 1463 1462 1441 1442 1445 1444 1438 1449 1414 1412 1412 1412 1410 1409 1409 1407 1407